Location: Choisy
(48.7685°N, 2.4187°E)
Time: 09:04:49
(UTC+00:00)

ATLAS 3B R/B - Pass Details

Date: 07 December 2023
Orbit: 947 x 1247 km, 63.8° (Epoch: 10 February)

Event Time Altitude Azimuth Distance (km) Brightness Sun altitude
Exits shadow 05:13:14 33° 304° (NW) 1,852 3.4 -21.3°
Maximum altitude 05:15:01 37° 333° (NNW) 1,743 3.5 -21.0°
Drops below altitude 10° 05:22:02 10° 39° (NE) 3,180 5.5 -19.9°
Sets 05:25:09 0° 47° (NE) 4,172 6.3 -19.4°
